Temp
16 16 16 16 16 16 16 16 15 15 15 15 15 15 15 15 15 15 15 15 14 14 14 14 14 14 14 14 14 14 14 14 14 14 13 13 13 13 13 14 13 13 13 13 13 13 13 13 13 14 14 13 13 13 12 12 11 10 11 11 11 11 11 10 9 8 6 7 7 6 6 6 5 4 4 4 4 4 5 5 5 6 6 5 5
16 16 16 16 16 16 16 16 15 15 15 15 15 15 14 14 14 14 14 14 14 14 14 14 14 14 14 14 14 14 14 14 14 14 14 14 14 14 14 14 14 14 14 14 13 13 13 13 13 13 13 13 12 12 12 11 11 10 10 10 11 11 11 10 9 8 5 5 5 5 5 5 5 4 4 4 4 4 5 5 5 6 5 5 5
17 16 15 15 16 16 16 15 15 15 15 15 15 15 15 14 14 14 14 14 14 14 14 14 14 14 14 14 14 14 14 13 14 14 14 14 14 14 14 14 14 14 14 13 13 13 13 13 13 12 12 12 12 12 12 11 11 10 10 10 11 11 11 10 9 8 6 4 4 5 4 4 4 5 4 4 4 4 5 5 5 5 5 5 5
17 16 15 15 15 15 15 15 15 15 15 15 15 15 15 14 14 14 14 14 14 14 14 14 14 14 14 14 14 13 13 13 13 13 14 14 14 14 14 14 14 14 14 13 13 13 13 13 13 13 13 12 12 12 11 11 10 10 10 10 10 10 10 9 9 8 7 4 3 4 4 4 4 4 4 3 3 4 4 4 5 5 5 5 5
17 16 16 16 15 15 15 15 15 15 15 15 15 15 15 14 14 14 14 14 14 14 14 14 14 14 13 14 13 13 14 13 13 13 13 14 14 14 14 14 14 14 14 14 14 13 13 13 13 13 12 12 11 11 11 10 10 10 10 10 10 9 9 9 8 8 8 6 3 3 3 3 3 3 3 3 2 2 3 4 4 4 4 5 5
17 16 16 15 15 15 15 15 14 15 14 14 14 14 14 14 14 14 14 14 14 14 14 14 14 13 13 14 13 14 14 14 14 14 13 13 13 14 14 13 13 13 13 14 13 13 13 13 13 12 12 12 12 12 11 10 10 10 10 10 10 10 9 9 8 8 8 7 5 3 2 2 2 2 2 3 3 3 3 3 3 3 4 5 5
16 16 15 15 15 15 15 15 14 14 14 14 14 14 14 14 14 14 14 14 13 13 13 13 13 13 14 14 14 14 13 13 13 13 13 14 13 13 13 13 13 13 13 13 13 13 13 12 13 12 12 12 12 12 11 10 10 11 11 11 10 9 8 8 7 7 7 6 4 3 2 1 2 2 2 2 2 3 3 3 2 3 4 5 5
15 15 14 14 14 15 15 14 13 13 13 13 13 13 13 13 13 13 13 13 13 13 13 13 13 13 13 13 13 13 13 13 13 13 13 13 13 13 13 13 13 13 13 13 13 13 12 12 13 13 13 13 12 12 12 11 10 10 10 10 10 8 7 7 6 6 6 5 4 3 2 1 1 1 1 0 0 1 3 3 3 4 5 5 4
16 15 13 14 14 14 14 14 13 13 13 13 13 13 13 12 12 12 12 12 13 13 13 13 13 13 13 13 13 13 13 13 13 13 13 13 13 13 13 13 13 13 13 13 13 12 12 12 13 13 12 12 12 11 11 11 11 10 10 10 9 7 6 6 6 5 5 4 3 2 1 0 0 -0 -0 -0 1 3 4 3 3 4 5 4 4
17 15 14 15 14 13 13 13 13 13 13 13 12 12 12 12 11 11 11 12 12 12 12 12 12 13 13 13 13 13 13 13 13 13 13 13 13 13 13 13 13 13 12 12 12 12 12 12 12 12 12 11 11 11 10 10 10 11 11 11 9 7 6 6 5 5 4 3 3 2 0 -0 -0 0 1 2 3 4 4 4 4 4 4 3 3
18 16 16 15 14 12 12 12 12 12 12 12 12 12 12 11 10 10 11 11 10 11 11 12 12 12 12 12 13 13 13 13 13 13 13 13 12 12 12 12 12 12 12 12 12 11 11 11 12 12 11 11 10 10 10 10 10 9 9 10 9 9 8 7 5 5 4 4 3 2 1 0 0 1 2 3 4 4 4 5 5 4 4 2 2
18 17 16 14 13 12 12 11 11 12 12 12 11 11 10 9 9 9 9 10 10 10 11 11 11 12 12 12 12 12 12 13 13 12 12 12 12 12 12 12 12 12 12 11 11 11 11 11 11 11 11 10 10 10 9 9 8 8 8 9 9 9 9 8 7 6 5 5 3 2 2 2 1 1 2 4 5 4 4 5 5 5 4 3 2
17 16 16 14 13 12 12 11 11 11 11 11 10 9 8 8 8 9 9 9 10 10 11 11 11 11 12 12 12 12 12 12 12 12 12 12 12 12 12 11 11 12 11 11 11 11 11 11 11 10 10 9 9 9 9 8 8 8 7 7 7 7 8 8 8 8 7 6 5 3 4 4 4 5 6 7 6 5 4 5 5 4 4 3 2
15 15 14 13 12 13 12 12 11 11 10 9 8 7 7 7 8 8 9 9 9 10 10 10 11 11 11 12 12 12 12 12 12 12 12 12 11 11 11 11 11 11 11 11 11 11 11 11 10 10 9 9 9 9 8 8 8 7 7 7 7 7 6 6 6 6 6 6 6 5 6 6 7 8 9 8 7 7 6 6 6 5 3 2 2
13 13 13 12 12 12 13 12 10 9 8 7 6 6 6 6 6 7 7 8 8 9 9 10 10 10 11 11 11 11 11 11 11 11 11 11 11 11 10 10 10 10 10 10 11 11 10 10 9 9 9 9 9 9 8 8 7 7 6 6 6 6 5 5 5 5 4 4 5 5 5 5 6 8 8 8 8 7 7 7 6 5 3 2 1
12 12 12 13 12 11 12 11 8 6 6 5 5 5 5 5 5 6 6 6 7 7 8 8 9 10 10 10 10 10 10 10 11 11 10 10 11 10 10 10 10 10 10 10 10 10 9 9 8 8 8 8 8 8 7 7 6 6 6 6 5 4 4 4 3 4 4 4 4 4 5 6 6 6 7 7 7 7 6 6 4 3 2 0 -1
12 13 13 15 14 11 10 10 8 6 5 5 5 5 5 5 5 5 6 6 6 7 7 8 8 9 9 9 9 9 9 9 9 9 10 10 10 10 10 10 10 9 9 9 9 8 8 7 7 8 7 8 8 7 6 6 6 5 5 5 4 3 3 2 2 3 3 4 4 5 5 6 6 6 6 6 7 7 6 5 3 2 1 -1 -2
12 13 14 17 16 13 10 9 8 7 5 5 5 4 4 4 5 5 6 6 6 6 7 7 7 8 8 9 9 9 9 9 9 9 9 9 9 10 10 9 9 9 8 8 7 7 7 7 7 7 7 7 7 7 6 6 5 5 5 4 3 2 2 2 2 2 3 4 4 5 5 5 5 5 5 6 6 6 6 5 4 3 2 0 -1
12 15 18 19 17 13 10 8 8 7 6 6 5 4 4 4 4 5 6 6 6 6 6 7 7 7 8 9 9 9 9 9 9 9 9 9 9 9 9 9 8 7 7 6 6 6 7 7 7 7 7 6 6 6 6 6 5 5 4 4 3 2 2 2 1 2 2 3 4 4 4 4 4 5 5 5 5 5 5 5 4 3 2 2 0
15 17 18 17 14 12 10 8 8 8 8 6 5 4 3 4 4 4 5 6 6 6 7 7 7 8 8 8 8 9 9 9 9 8 8 8 8 8 8 8 7 7 6 6 6 7 7 7 7 7 7 6 6 5 5 5 5 4 4 4 4 3 2 2 1 2 2 3 3 3 3 3 4 4 4 4 4 4 4 3 3 3 2 2 1
17 17 15 13 12 11 10 9 9 9 8 6 4 3 3 4 4 4 4 5 6 6 7 7 7 8 8 8 8 9 9 8 8 8 7 7 8 8 7 7 7 7 6 6 6 7 7 6 6 6 5 5 5 4 4 4 4 4 4 4 4 3 2 2 1 1 2 2 2 2 2 3 3 3 3 4 4 4 3 3 2 2 2 1 1
16 15 13 11 11 10 10 9 8 7 6 5 4 4 3 4 4 4 4 4 5 6 6 6 7 7 7 7 8 8 8 8 7 7 7 7 6 6 7 7 7 6 6 6 6 6 5 5 5 5 4 4 4 4 4 3 3 3 3 2 2 2 2 2 1 1 1 1 1 1 2 2 2 2 3 4 4 3 2 2 1 1 1 0 -0
13 12 11 10 10 9 9 9 8 6 5 5 4 3 3 3 4 4 4 4 5 5 5 6 6 5 6 6 7 7 7 7 7 7 7 6 6 6 6 6 6 6 6 6 6 5 5 4 4 4 4 4 4 3 3 3 2 2 2 1 1 1 1 1 1 0 0 0 0 1 1 1 2 2 3 3 2 2 1 1 1 0 -0 -1 -2
11 10 10 9 9 9 9 8 7 5 5 4 3 3 3 3 4 4 4 4 4 4 4 4 4 4 4 4 5 6 6 6 6 6 6 6 5 5 5 5 5 5 5 5 5 5 4 4 4 4 4 4 4 3 2 2 2 1 1 0 -0 -0 0 0 0 -0 -0 -1 -0 0 1 1 2 2 2 2 1 0 0 0 0 -1 -2 -2 -3
9 9 9 8 8 8 7 6 5 4 4 3 3 3 3 3 4 4 4 4 3 3 3 3 3 3 3 3 3 4 5 5 5 5 5 5 5 4 4 4 4 4 4 4 4 4 4 4 3 3 3 3 2 1 1 0 0 -0 -0 -1 -1 -1 -0 -0 -0 -1 -1 -1 -0 0 1 1 1 1 1 -0 -1 -1 -1 -1 -1 -2 -3 -3 -3
8 8 8 8 7 7 5 4 3 3 3 3 3 3 3 3 3 3 3 3 3 3 3 2 2 2 2 2 3 3 4 4 4 4 4 4 4 3 3 3 3 3 3 3 3 3 3 3 2 2 2 2 1 1 -0 -1 -1 -1 -1 -1 -1 -1 -1 -1 -0 -0 -0 -0 0 0 1 0 0 -0 -1 -2 -2 -2 -2 -2 -3 -3 -3 -3 -3
8 7 7 7 6 5 4 3 2 2 2 2 2 3 3 3 3 2 2 2 2 3 2 2 2 2 2 2 2 2 2 3 3 3 3 3 3 2 2 2 2 2 2 2 2 2 2 2 1 1 1 1 0 -0 -1 -1 -2 -2 -2 -2 -2 -2 -1 -1 -0 -0 0 0 0 -0 -1 -1 -2 -2 -3 -3 -3 -3 -3 -3 -3 -3 -3 -4 -4
7 7 6 6 5 4 3 2 2 2 2 2 2 2 2 3 3 3 3 3 3 3 3 2 2 2 2 2 1 0 0 1 2 3 3 3 3 2 1 1 1 2 2 1 1 1 1 1 1 0 -0 -1 -2 -2 -2 -2 -2 -2 -2 -2 -2 -2 -2 -2 -1 -1 -1 -1 -1 -1 -2 -3 -4 -4 -4 -4 -4 -3 -3 -3 -4 -5 -5 -5 -6
6 6 5 4 3 3 2 2 2 2 2 2 2 2 2 3 3 3 3 3 3 3 3 3 3 3 2 2 2 1 -0 1 4 5 5 5 4 4 3 3 2 2 2 1 1 0 0 0 -0 -1 -2 -2 -3 -3 -3 -3 -3 -3 -3 -3 -3 -3 -3 -3 -2 -2 -2 -2 -2 -3 -4 -4 -5 -5 -5 -5 -5 -5 -4 -5 -6 -6 -7 -7 -7
5 5 4 3 3 2 2 1 2 2 2 2 2 2 2 2 3 3 3 3 3 3 4 4 4 4 4 4 4 4 4 6 7 6 5 5 5 4 4 4 3 2 1 1 0 -0 -1 -1 -1 -2 -2 -3 -3 -3 -3 -3 -3 -3 -3 -3 -3 -3 -3 -3 -3 -3 -3 -3 -3 -4 -4 -5 -5 -5 -6 -6 -6 -6 -6 -6 -7 -8 -8 -8 -7
4 4 3 3 2 2 1 1 1 1 2 2 1 2 2 2 2 3 3 3 3 4 4 4 5 5 6 6 6 5 6 7 7 6 5 5 4 4 3 3 2 2 1 0 -0 -1 -1 -2 -2 -3 -3 -3 -3 -3 -3 -3 -3 -4 -4 -4 -4 -4 -4 -4 -4 -4 -4 -4 -4 -5 -5 -5 -5 -5 -6 -6 -6 -6 -7 -7 -8 -8 -8 -8 -9
4 4 3 3 3 2 1 1 1 1 1 1 1 2 1 1 1 1 2 3 3 4 4 5 5 5 5 5 6 5 5 5 5 5 4 4 3 3 2 2 1 1 0 -0 -1 -1 -2 -2 -3 -3 -3 -3 -3 -3 -3 -4 -4 -4 -4 -5 -5 -5 -5 -5 -5 -5 -5 -5 -5 -5 -5 -5 -6 -6 -6 -6 -6 -7 -7 -8 -8 -8 -9 -9 -10
4 4 4 3 2 1 1 1 1 1 1 1 1 1 1 1 0 0 0 1 2 2 3 3 3 4 4 4 5 5 5 5 5 4 4 3 2 2 1 1 0 -0 -1 -1 -1 -2 -2 -2 -2 -2 -3 -3 -3 -3 -4 -4 -4 -5 -5 -5 -5 -5 -5 -6 -5 -5 -5 -5 -5 -5 -5 -5 -6 -6 -7 -7 -7 -7 -8 -8 -8 -9 -10 -10 -10
4 4 4 3 2 1 1 1 1 1 1 1 1 1 1 1 1 0 -1 -1 -0 0 1 1 2 2 3 3 3 4 4 4 4 4 3 2 2 1 0 -0 -1 -1 -1 -1 -2 -2 -2 -2 -2 -2 -2 -3 -3 -3 -3 -4 -4 -5 -5 -6 -6 -6 -6 -6 -6 -6 -6 -6 -6 -6 -6 -6 -6 -7 -7 -7 -7 -8 -8 -9 -9 -9 -10 -10 -11
3 4 4 4 3 2 1 1 1 1 1 1 1 1 1 1 1 1 -1 -1 -1 -1 -1 -0 0 1 2 2 3 3 3 3 3 3 2 1 1 0 -1 -2 -3 -3 -3 -2 -2 -2 -2 -2 -2 -2 -2 -2 -3 -3 -3 -3 -4 -4 -5 -5 -6 -6 -7 -7 -6 -6 -6 -6 -6 -6 -6 -7 -7 -7 -7 -8 -8 -8 -9 -9 -9 -9 -10 -10 -11
2 3 3 3 3 2 2 2 1 1 1 1 1 1 1 1 1 0 -0 -0 -1 -1 -2 -1 -1 -0 0 1 2 2 2 2 2 2 1 1 0 -1 -2 -3 -3 -4 -4 -3 -3 -2 -2 -2 -2 -2 -2 -3 -3 -3 -3 -3 -4 -4 -4 -5 -5 -6 -6 -6 -6 -6 -6 -6 -7 -7 -7 -7 -7 -8 -8 -8 -8 -9 -9 -9 -9 -10 -10 -10 -10
2 2 2 2 2 2 2 2 1 1 1 1 1 1 1 1 1 0 -0 -0 -1 -2 -2 -2 -2 -2 -1 -0 1 1 1 1 1 1 0 -0 -1 -1 -2 -3 -3 -4 -4 -4 -3 -3 -3 -3 -3 -3 -3 -3 -3 -3 -4 -4 -4 -4 -4 -5 -5 -5 -5 -5 -5 -6 -6 -6 -6 -7 -7 -7 -7 -8 -8 -8 -9 -9 -9 -9 -10 -10 -10 -10 -11
1 2 2 2 2 2 1 1 1 1 1 1 1 1 1 0 0 -0 -0 -1 -1 -2 -3 -3 -3 -3 -3 -2 -1 -1 -0 -1 -1 -1 -1 -2 -2 -3 -3 -3 -3 -4 -4 -4 -4 -4 -4 -4 -4 -4 -4 -4 -4 -4 -4 -4 -4 -5 -5 -5 -5 -5 -6 -6 -6 -6 -6 -6 -7 -7 -7 -7 -8 -8 -8 -9 -9 -9 -9 -10 -10 -10 -11 -11 -11
1 1 1 2 1 1 1 1 1 1 1 0 0 0 0 -0 -1 -1 -1 -1 -2 -3 -3 -4 -3 -3 -3 -2 -2 -2 -2 -2 -3 -3 -3 -3 -3 -4 -4 -4 -4 -4 -4 -5 -5 -4 -4 -4 -4 -4 -4 -4 -4 -4 -5 -5 -5 -5 -5 -5 -6 -6 -6 -6 -6 -6 -7 -7 -7 -7 -7 -7 -8 -8 -9 -9 -9 -9 -10 -10 -10 -10 -11 -11 -11
0 0 1 1 1 1 1 1 0 0 0 -0 -0 -0 -1 -1 -1 -1 -2 -2 -3 -3 -4 -4 -3 -3 -3 -2 -2 -2 -3 -3 -4 -4 -4 -4 -4 -4 -4 -5 -5 -5 -5 -5 -5 -5 -5 -5 -5 -5 -5 -5 -5 -5 -5 -5 -5 -5 -6 -6 -6 -6 -6 -6 -6 -7 -7 -7 -7 -7 -8 -8 -8 -8 -9 -9 -9 -9 -10 -10 -10 -11 -11 -11 -12
0 -0 0 0 0 0 0 -0 -0 -0 -0 -1 -1 -1 -1 -1 -2 -2 -2 -2 -3 -3 -4 -4 -4 -3 -3 -2 -2 -2 -2 -3 -4 -4 -5 -5 -5 -5 -5 -5 -4 -5 -5 -5 -5 -5 -5 -5 -5 -5 -5 -5 -5 -6 -6 -6 -6 -6 -6 -6 -6 -6 -7 -7 -7 -7 -7 -7 -8 -8 -8 -8 -8 -9 -9 -9 -9 -10 -10 -10 -11 -11 -11 -12 -12
-0 -0 -0 -1 -1 -0 -1 -1 -1 -1 -1 -1 -1 -2 -2 -2 -2 -2 -3 -3 -4 -4 -4 -5 -4 -4 -3 -2 -2 -2 -2 -3 -4 -4 -5 -5 -5 -5 -5 -4 -4 -4 -4 -4 -5 -5 -5 -5 -5 -6 -6 -6 -6 -6 -6 -6 -6 -6 -7 -7 -7 -7 -7 -7 -7 -7 -8 -8 -8 -8 -8 -9 -9 -9 -9 -9 -10 -10 -10 -11 -11 -11 -12 -12 -12
-1 -1 -1 -1 -1 -1 -1 -2 -2 -2 -2 -2 -2 -2 -2 -3 -3 -3 -3 -4 -4 -5 -5 -6 -5 -4 -3 -3 -3 -2 -2 -3 -4 -4 -5 -5 -5 -5 -5 -5 -4 -4 -5 -5 -5 -6 -6 -6 -6 -6 -6 -7 -6 -6 -6 -6 -6 -7 -7 -7 -7 -7 -7 -8 -8 -8 -8 -8 -9 -9 -9 -9 -9 -9 -9 -9 -10 -10 -10 -11 -11 -12 -12 -12 -12
-2 -2 -2 -2 -2 -2 -2 -2 -2 -3 -3 -3 -3 -3 -3 -4 -4 -4 -4 -5 -5 -5 -6 -6 -6 -5 -5 -5 -4 -3 -3 -4 -4 -4 -5 -5 -5 -6 -6 -6 -6 -6 -6 -6 -6 -6 -6 -6 -7 -7 -7 -7 -7 -7 -7 -7 -7 -7 -8 -8 -8 -8 -8 -8 -8 -9 -9 -9 -9 -9 -10 -10 -10 -10 -10 -10 -10 -11 -11 -11 -12 -12 -12 -13 -13
-3 -3 -3 -3 -3 -3 -3 -3 -3 -3 -4 -4 -4 -4 -4 -4 -5 -5 -5 -5 -6 -6 -6 -6 -6 -6 -6 -6 -5 -5 -5 -5 -5 -5 -5 -6 -6 -6 -6 -6 -7 -7 -7 -7 -7 -7 -7 -7 -7 -8 -8 -8 -8 -8 -8 -8 -8 -8 -9 -9 -9 -9 -9 -9 -9 -9 -10 -10 -10 -10 -10 -10 -10 -11 -11 -11 -11 -11 -11 -12 -12 -12 -13 -13 -13
-4 -4 -4 -4 -4 -4 -4 -4 -4 -4 -5 -5 -5 -5 -5 -5 -5 -5 -6 -6 -6 -7 -7 -7 -7 -7 -7 -7 -7 -6 -6 -6 -6 -6 -7 -7 -7 -7 -7 -7 -7 -7 -7 -7 -8 -8 -8 -8 -8 -8 -9 -9 -9 -9 -9 -9 -9 -9 -9 -9 -10 -10 -10 -10 -10 -10 -10 -11 -11 -11 -12 -12 -12 -12 -12 -12 -12 -12 -12 -12 -12 -13 -13 -13 -13
-4 -4 -4 -5 -5 -5 -5 -5 -5 -5 -6 -6 -6 -6 -6 -6 -6 -6 -6 -7 -7 -8 -8 -8 -8 -8 -8 -8 -8 -7 -7 -8 -8 -7 -7 -7 -7 -8 -8 -8 -8 -8 -8 -9 -9 -9 -9 -9 -9 -9 -9 -9 -9 -9 -9 -9 -10 -10 -10 -10 -10 -10 -10 -10 -11 -11 -11 -11 -12 -12 -13 -13 -13 -13 -13 -13 -13 -13 -13 -13 -13 -13 -13 -13 -13
-5 -5 -5 -5 -6 -6 -6 -6 -6 -7 -7 -7 -7 -7 -7 -7 -7 -7 -8 -8 -8 -9 -9 -9 -9 -9 -9 -9 -9 -9 -9 -9 -9 -8 -8 -8 -8 -9 -9 -9 -9 -9 -9 -9 -10 -9 -9 -9 -9 -9 -9 -9 -9 -9 -10 -10 -10 -10 -10 -10 -11 -11 -11 -11 -11 -11 -11 -12 -12 -13 -13 -13 -14 -14 -14 -14 -14 -14 -14 -13 -13 -14 -14 -14 -14
-6 -6 -6 -6 -6 -7 -7 -7 -7 -7 -7 -7 -8 -8 -8 -8 -9 -9 -9 -9 -9 -9 -10 -10 -10 -10 -10 -10 -10 -10 -10 -9 -9 -9 -9 -9 -9 -10 -10 -10 -10 -10 -10 -10 -10 -10 -10 -10 -10 -10 -10 -10 -10 -10 -10 -10 -10 -11 -11 -11 -11 -11 -11 -11 -11 -11 -12 -12 -12 -13 -13 -14 -14 -14 -15 -15 -15 -15 -15 -14 -14 -14 -14 -14 -15
-7 -7 -7 -7 -7 -7 -7 -8 -8 -8 -8 -8 -9 -9 -9 -9 -10 -10 -10 -10 -10 -10 -10 -11 -11 -10 -10 -10 -10 -10 -9 -9 -10 -10 -10 -10 -10 -10 -10 -11 -11 -11 -11 -11 -11 -11 -10 -10 -10 -10 -10 -10 -10 -10 -11 -11 -11 -11 -11 -11 -11 -11 -11 -12 -12 -12 -12 -12 -13 -13 -14 -14 -15 -15 -15 -15 -16 -16 -16 -15 -15 -15 -15 -15 -15
-8 -8 -8 -8 -8 -8 -8 -8 -9 -9 -9 -9 -9 -10 -10 -10 -10 -10 -10 -10 -11 -11 -11 -10 -10 -10 -9 -9 -9 -9 -9 -10 -10 -10 -11 -11 -11 -11 -11 -11 -11 -11 -11 -11 -11 -11 -11 -11 -10 -10 -11 -11 -11 -11 -11 -11 -11 -11 -11 -12 -12 -12 -12 -12 -12 -13 -13 -13 -13 -14 -14 -14 -15 -15 -15 -16 -16 -16 -16 -16 -16 -16 -16 -16 -16
Height
741 742 743 744 745 746 747 748 749 751 752 754 754 755 756 758 759 761 763 764 765 767 769 770 772 774 776 778 779 780 782 783 784 786 787 788 788 790 791 792 792 792 793 794 794 795 796 796 797 798 799 799 799 800 801 802 804 805 806 807 808 810 812 815 816 819 822 824 825 827 828 830 832 833 834 835 836 837 837 838 839 839 840 840 840
738 739 740 741 742 742 744 745 746 748 749 750 750 751 752 753 755 757 758 759 761 763 765 767 769 771 772 773 775 776 777 779 780 782 783 784 784 785 786 787 787 787 788 789 789 791 791 792 792 793 794 794 795 796 798 800 802 803 804 804 805 806 808 810 812 816 820 822 823 824 825 827 828 828 829 830 831 833 834 835 836 837 837 837 837
735 736 737 738 738 739 741 742 743 744 745 745 746 746 748 749 751 753 754 756 758 759 761 763 765 767 768 769 770 772 773 775 777 778 779 780 780 781 782 782 782 783 784 784 785 786 787 787 788 789 791 792 793 795 796 797 798 799 801 803 804 804 805 807 809 812 816 818 819 820 821 823 823 824 825 827 829 830 831 832 833 834 834 834 834
733 734 734 735 735 736 737 738 739 740 740 740 741 742 744 746 747 749 750 752 754 755 757 759 761 763 764 765 766 768 769 771 772 773 774 775 776 777 778 778 778 779 780 781 782 783 784 784 785 787 788 789 790 792 793 794 795 797 799 800 801 801 803 805 808 810 812 813 815 816 817 818 820 821 823 825 828 828 829 830 830 831 831 832 832
730 730 731 731 732 732 733 733 735 735 735 736 737 739 741 742 744 745 747 749 750 752 754 755 757 758 759 761 762 764 765 766 768 769 770 771 772 772 773 774 774 775 777 778 779 780 780 781 783 784 785 786 788 789 790 791 793 795 796 796 797 799 800 803 805 807 808 809 810 813 815 816 818 819 821 822 824 825 826 827 827 828 829 830 831
727 727 728 728 728 728 728 729 729 730 731 732 734 736 738 739 741 742 743 745 746 748 750 751 753 754 755 757 758 760 761 762 763 764 766 767 768 768 769 770 771 772 774 775 775 776 777 778 779 780 781 782 784 785 786 787 789 791 791 792 793 794 796 798 801 804 805 805 806 809 811 813 814 816 819 820 821 822 823 824 825 826 827 828 829
724 724 724 724 724 724 724 725 725 726 728 729 731 733 734 736 737 738 740 742 743 744 745 747 748 750 752 753 754 756 757 758 759 760 762 763 764 765 766 767 768 769 770 771 772 773 773 774 775 776 777 778 779 780 781 783 784 785 786 787 789 790 791 793 796 799 801 802 804 806 808 810 812 814 816 818 820 821 821 822 823 823 825 826 827
720 721 721 721 720 719 720 722 723 724 725 727 728 729 731 732 734 735 737 738 739 740 741 743 745 746 748 749 750 752 753 754 755 756 758 759 760 761 762 763 764 765 766 767 768 769 769 770 771 772 773 774 775 776 777 778 779 780 782 784 785 786 788 790 793 795 797 800 802 803 806 809 811 813 815 817 818 818 819 820 820 821 823 824 824
716 717 718 716 716 716 718 719 720 721 722 723 725 726 727 729 730 731 733 733 735 736 738 739 741 742 743 745 746 748 749 750 751 753 754 755 756 757 758 760 761 762 763 763 764 765 765 766 767 768 769 770 771 772 773 774 775 776 778 780 782 784 786 789 790 792 795 797 800 801 804 806 808 810 811 812 812 813 815 817 818 819 820 821 821
712 713 713 712 712 714 715 716 717 718 719 719 721 722 723 725 726 727 728 729 731 733 734 736 737 738 739 741 742 744 745 746 748 749 750 751 753 754 755 756 757 758 759 759 760 761 761 762 763 764 765 766 767 769 770 771 772 772 775 777 779 781 784 786 787 788 790 793 795 798 800 801 803 804 805 806 808 811 813 814 815 816 817 818 818
709 709 708 708 710 711 712 713 714 714 715 716 717 718 720 721 722 723 725 726 728 729 731 732 733 735 736 737 739 740 741 743 744 746 747 748 749 750 751 752 753 754 755 756 756 757 758 759 760 761 762 763 764 765 766 767 769 770 773 775 776 778 780 782 784 786 787 789 791 793 795 796 798 800 802 804 807 809 810 811 812 813 814 815 816
705 705 705 706 707 708 708 710 710 711 712 713 714 715 717 718 719 721 722 723 725 726 728 729 730 732 733 734 735 737 738 739 741 742 743 744 745 746 747 749 750 751 752 752 753 754 755 756 757 758 759 760 761 762 763 764 767 769 771 772 774 775 777 779 781 783 785 787 789 790 790 792 795 797 799 801 804 806 808 809 810 810 811 812 813
703 702 702 703 704 705 706 706 707 707 708 710 711 712 714 715 717 718 719 721 723 724 724 726 727 729 730 731 732 733 735 736 737 738 739 740 742 743 744 746 747 748 749 750 751 752 753 754 755 755 756 757 758 759 760 762 765 767 769 771 773 775 777 779 780 781 783 784 785 785 786 789 791 793 795 799 801 804 805 806 807 808 809 810 811
701 700 700 701 701 702 702 703 704 704 705 707 708 710 711 712 714 716 717 719 720 720 721 723 724 725 726 727 729 730 731 733 734 735 736 737 738 739 741 743 744 745 746 747 748 750 751 751 751 752 753 754 755 756 758 760 762 765 767 769 771 773 775 777 779 780 781 782 783 784 786 789 791 792 795 797 800 801 802 804 805 806 808 809 810
699 698 698 699 699 699 699 699 701 702 703 705 706 707 708 709 711 713 714 716 716 717 718 720 721 722 723 724 725 726 728 730 731 732 733 733 735 736 737 739 740 741 743 744 746 747 748 748 748 749 750 751 752 754 757 759 761 763 765 767 769 772 774 776 777 779 780 782 784 786 789 791 792 794 796 797 798 800 801 803 804 805 806 808 809
696 696 696 696 697 697 696 696 698 699 701 703 703 704 705 706 708 710 711 713 713 715 715 716 717 718 720 721 722 723 725 726 728 728 729 730 731 732 734 735 736 738 739 741 742 743 744 745 746 747 748 749 751 753 755 758 760 761 763 765 768 770 772 774 776 777 779 781 784 786 788 790 792 794 795 796 797 799 800 802 803 804 805 806 807
693 693 693 692 693 694 693 693 694 696 699 700 700 700 701 703 705 707 708 710 710 711 712 713 714 715 716 717 718 720 721 723 724 725 726 727 728 729 730 732 733 735 737 739 740 741 743 744 745 746 747 748 750 752 754 756 758 760 762 764 766 768 769 771 773 775 776 778 781 783 785 787 789 791 793 794 795 796 798 799 800 801 803 804 805
690 690 689 688 689 690 690 690 690 692 694 695 696 697 698 700 702 703 706 707 708 709 710 711 712 713 713 714 715 716 718 719 721 722 723 724 724 725 727 728 730 733 736 738 740 741 741 742 743 744 745 747 748 750 751 753 755 757 758 760 762 763 764 766 768 771 773 774 776 779 780 782 784 787 789 791 792 794 795 796 797 798 800 801 802
687 686 684 683 684 685 687 688 687 687 689 690 691 693 695 698 700 701 703 705 706 708 709 709 710 710 711 711 712 713 715 716 718 719 720 721 722 723 724 725 727 730 734 737 739 740 740 740 740 741 742 744 746 747 749 750 752 753 755 757 758 759 760 763 765 768 770 772 773 775 777 779 782 784 786 788 790 792 792 793 794 795 797 798 799
682 681 679 680 681 681 683 684 684 683 684 685 688 691 693 695 698 699 700 702 704 706 706 707 707 708 708 709 709 710 712 714 715 716 717 718 719 720 721 721 723 727 731 735 738 739 739 738 738 739 740 741 743 745 747 748 750 751 753 754 755 756 759 762 764 766 769 771 773 774 776 779 781 783 784 786 788 789 790 790 791 793 794 796 797
676 676 676 677 677 677 678 680 680 679 680 683 686 688 690 692 694 695 697 699 701 702 704 705 705 706 706 706 707 708 709 711 712 713 715 716 717 718 718 718 719 723 727 732 735 737 739 738 738 738 739 740 742 743 745 747 748 750 751 752 754 756 758 761 763 765 768 770 772 774 776 778 779 781 783 784 785 786 787 788 790 792 793 794 795
671 672 672 673 673 673 674 675 677 677 678 680 682 684 686 689 690 692 693 695 697 699 700 702 703 704 704 704 705 706 707 708 709 711 712 714 715 716 716 715 716 719 723 728 732 735 737 738 738 738 739 739 741 742 744 745 747 748 750 751 753 755 757 760 762 764 766 768 770 772 774 776 778 779 781 782 783 784 786 787 789 791 792 792 793
667 668 668 668 668 669 670 671 673 674 674 676 678 680 683 686 687 689 690 691 693 695 697 699 700 701 701 701 702 703 704 705 707 708 710 711 713 713 714 713 713 715 719 723 727 731 734 736 737 738 738 738 739 741 742 743 745 746 748 750 751 753 756 759 761 762 764 766 768 770 772 774 775 777 778 779 781 783 785 787 788 789 790 790 791
663 663 662 663 664 664 665 667 668 670 670 672 675 677 679 682 684 686 687 688 690 692 693 695 697 697 698 698 699 701 702 703 704 705 707 709 711 711 712 712 712 714 717 721 724 728 731 733 735 736 736 736 737 739 740 741 742 744 746 748 749 751 754 756 758 760 762 764 765 767 769 770 772 774 776 777 779 782 784 785 786 787 788 789 790
659 657 657 658 659 660 662 663 665 666 667 668 671 673 675 678 681 682 683 684 686 688 690 691 693 694 695 696 697 698 700 701 702 703 705 707 708 709 709 710 711 712 715 719 722 726 729 732 733 734 735 735 736 737 738 739 741 743 744 746 747 749 751 753 755 757 759 760 762 764 765 768 770 772 774 776 778 780 781 782 783 785 786 788 789
654 653 653 654 655 657 659 660 662 664 664 665 667 669 671 673 676 677 679 680 682 684 686 688 689 691 692 693 695 696 698 699 700 701 703 705 706 706 707 707 709 711 714 718 721 725 728 731 732 733 734 734 735 736 737 739 740 742 743 744 746 748 749 751 753 755 756 758 760 762 764 766 768 770 772 774 776 777 778 780 782 783 785 786 787
649 649 649 650 651 653 654 655 658 660 661 662 664 666 668 670 672 674 675 676 677 680 682 684 685 687 689 691 693 694 695 697 698 699 701 703 704 704 704 705 707 710 713 717 720 724 727 730 731 732 733 734 735 736 737 738 739 740 741 743 744 746 748 750 752 753 755 757 758 761 763 764 766 768 769 771 773 775 777 778 780 781 783 784 785
645 645 645 646 647 648 649 650 652 654 656 657 659 661 663 665 667 667 668 669 670 672 675 678 680 682 685 688 690 692 693 694 694 695 698 699 700 701 701 703 705 708 711 715 719 723 726 728 729 730 731 732 734 735 736 737 738 739 740 741 743 745 747 749 751 752 754 756 758 759 761 763 764 766 768 769 771 773 775 776 778 779 781 782 783
642 642 642 643 643 644 645 647 648 650 652 654 655 656 657 659 661 662 664 666 667 667 669 672 675 679 682 685 688 689 690 689 690 692 695 696 697 697 697 699 702 705 709 712 716 720 723 725 727 728 729 730 732 733 734 736 737 738 739 740 742 744 745 747 748 750 752 754 756 757 759 761 763 765 766 768 770 771 773 774 775 777 779 780 781
639 638 638 640 640 641 642 643 644 646 648 650 652 654 655 657 659 661 663 665 667 668 668 670 673 676 679 682 684 685 686 687 689 692 693 694 694 694 695 697 699 703 706 710 714 717 720 723 725 726 727 729 730 731 733 734 735 736 738 740 741 742 744 745 747 749 750 752 754 756 757 760 761 763 765 766 768 769 771 772 774 775 776 778 778
635 634 634 635 636 637 637 638 640 642 644 646 648 650 652 655 657 659 660 662 665 666 667 669 671 673 675 678 680 683 684 686 689 690 691 692 693 694 695 697 700 703 706 709 712 716 718 721 723 724 726 727 728 729 731 732 734 735 737 738 740 741 742 744 745 747 748 750 752 753 755 757 759 761 762 764 765 767 768 770 772 773 774 775 776
631 630 629 629 631 633 634 635 637 639 641 643 644 646 648 651 653 656 658 659 661 663 665 666 668 670 672 674 677 679 682 684 687 689 690 691 692 693 696 698 701 703 706 708 711 714 716 719 721 722 724 725 727 728 730 731 733 734 736 737 738 739 740 742 743 745 746 748 750 751 753 755 757 758 760 761 763 764 766 767 768 770 771 772 773
627 625 625 625 626 629 631 632 633 634 636 637 639 640 642 644 647 650 653 656 659 661 662 663 665 666 669 671 674 677 679 682 685 687 688 689 690 692 694 697 700 702 705 707 710 713 715 718 719 721 723 724 725 727 728 730 731 733 734 735 736 737 739 740 742 743 744 746 747 749 750 752 754 755 757 758 760 761 763 764 766 767 768 769 770
622 622 622 622 622 624 625 627 628 629 631 633 635 636 637 639 641 645 648 651 654 657 658 660 661 663 666 668 671 674 677 679 682 684 685 687 688 690 693 696 699 702 704 706 708 711 714 716 718 720 721 723 724 725 726 728 730 732 733 734 736 737 738 739 740 741 742 744 745 746 748 750 751 753 754 756 757 759 760 762 763 764 765 766 767
619 619 620 620 620 620 621 622 623 625 627 629 631 632 634 637 639 642 644 645 648 650 653 655 658 660 663 665 668 671 674 677 680 681 682 684 686 689 692 695 698 700 702 704 707 709 711 714 716 718 720 721 722 723 725 727 729 731 732 734 735 736 737 738 739 740 741 742 743 745 747 748 750 751 753 754 755 757 758 759 761 761 762 763 764
615 616 618 618 618 618 618 618 619 621 622 625 627 630 632 635 637 639 641 643 645 647 650 652 655 658 661 664 666 668 672 675 677 678 679 681 683 686 688 691 695 698 700 703 706 708 710 712 714 716 718 719 720 722 724 726 728 730 732 734 735 736 737 738 738 739 740 741 743 744 746 748 749 750 751 752 753 754 756 757 759 759 760 761 763
610 612 614 615 616 616 616 616 616 618 619 622 625 628 630 633 635 637 638 640 641 644 646 649 652 655 659 661 664 666 669 672 674 675 677 679 681 683 685 688 692 696 699 702 705 707 709 710 712 714 716 717 719 721 723 725 727 729 731 733 735 736 737 737 738 738 739 740 741 743 744 746 747 749 750 751 752 753 754 755 757 757 758 760 761
606 607 610 612 614 614 615 614 615 616 617 620 622 624 627 629 632 633 635 636 637 640 643 645 648 651 654 657 661 665 667 670 671 672 674 676 678 680 684 687 690 694 697 700 703 705 707 708 710 712 714 716 717 719 721 723 726 728 730 732 733 735 736 736 737 737 738 738 739 740 742 744 745 747 748 749 750 751 752 753 754 755 756 757 758
602 604 606 609 611 612 612 612 613 613 614 616 618 621 623 625 627 629 631 633 634 636 639 642 645 647 650 654 659 662 663 664 665 666 669 671 674 677 681 685 688 692 696 698 701 703 704 706 708 710 712 714 715 717 718 721 723 726 728 730 732 733 734 735 735 736 736 736 737 738 739 741 743 745 746 747 749 750 751 752 752 753 754 755 755
600 601 603 605 608 610 610 610 610 610 611 612 614 616 618 620 622 624 626 628 630 632 635 637 640 643 646 650 654 656 658 658 659 661 664 667 671 674 678 682 685 689 693 695 698 700 701 703 705 707 709 711 713 714 716 718 721 723 726 728 729 731 732 733 733 734 735 735 736 736 737 739 740 742 744 745 747 748 749 750 750 751 752 752 753
598 599 600 601 605 607 609 608 607 607 608 610 611 613 614 615 617 619 621 623 625 628 631 633 636 639 643 647 651 654 655 655 656 658 661 664 668 671 675 678 682 685 689 691 694 696 698 700 702 704 706 708 710 712 714 716 718 720 723 725 726 728 729 731 732 733 734 734 734 735 735 737 738 739 741 743 745 746 747 748 748 749 749 750 751
596 596 596 598 601 603 605 605 605 606 607 608 609 610 612 613 615 617 618 620 622 625 628 631 634 637 641 645 649 652 653 653 654 656 659 662 665 669 672 676 679 682 685 688 690 693 695 697 699 701 703 705 707 709 711 713 715 718 720 722 723 725 727 728 730 731 732 733 733 733 734 735 736 737 739 741 742 744 745 745 746 747 747 748 748
593 593 594 595 597 599 600 601 603 605 605 606 607 608 609 611 612 614 616 618 621 623 626 629 632 635 639 643 646 649 650 651 652 654 656 660 663 667 670 673 676 680 683 686 688 690 692 694 697 699 701 703 705 707 709 711 713 715 717 719 721 723 725 726 728 729 730 731 731 732 732 733 734 735 737 739 740 741 742 743 744 744 744 745 745
592 591 592 593 594 596 598 599 601 602 603 605 606 607 608 609 610 611 613 616 618 620 623 626 629 633 637 640 643 644 646 647 649 652 654 658 661 665 668 671 674 678 681 683 686 688 690 692 695 697 700 702 704 706 708 710 712 713 715 717 718 721 723 724 725 726 727 728 728 729 730 731 732 733 735 736 738 739 740 741 741 742 742 742 743
590 589 589 590 592 594 595 597 599 601 603 604 605 606 607 608 608 609 611 613 615 618 620 623 626 629 633 636 639 640 642 645 648 650 654 657 660 664 667 670 673 676 679 682 684 686 688 691 694 696 698 701 702 704 706 708 710 712 713 715 716 718 720 721 722 723 724 725 725 726 727 728 729 731 732 734 736 737 738 738 739 739 739 740 740
588 587 586 587 589 591 594 596 598 600 601 603 604 605 606 606 606 607 609 611 614 616 619 621 624 627 630 633 635 638 641 644 647 650 654 657 660 663 666 669 672 675 678 680 682 685 688 690 693 696 698 700 701 703 705 707 709 710 712 713 714 716 717 718 719 720 721 721 722 723 724 725 727 728 730 732 734 735 735 736 736 736 737 737 738
586 585 584 584 586 588 591 595 597 599 601 602 602 604 605 606 606 606 607 610 613 616 619 622 625 627 629 632 634 637 640 644 647 650 654 657 660 663 666 669 672 674 677 680 682 684 687 691 693 696 698 699 700 702 704 706 708 709 710 711 712 713 715 716 716 717 718 718 719 720 721 722 724 726 728 730 731 732 733 733 733 734 734 734 735
584 583 583 583 584 585 588 591 595 598 600 601 602 603 604 605 606 606 606 608 611 614 618 622 625 627 629 632 635 638 641 645 648 652 655 657 660 664 666 669 672 674 676 679 681 684 687 690 693 695 697 698 700 701 703 705 706 707 708 709 710 711 712 713 714 714 715 715 716 717 718 719 721 723 725 727 729 730 730 730 731 731 731 732 733
583 582 582 582 583 583 584 586 590 595 598 600 602 603 604 605 606 606 607 608 610 613 616 620 623 626 630 633 636 640 643 646 650 653 656 659 662 664 667 669 672 674 676 679 681 684 687 690 692 694 696 697 699 700 702 703 705 706 706 707 708 709 710 710 711 711 712 712 713 714 715 716 719 721 723 725 726 727 727 728 728 729 729 730 731
583 581 580 581 582 583 583 584 586 590 595 598 601 603 604 605 605 607 608 608 610 612 615 618 621 625 629 633 637 640 644 648 651 654 657 659 662 665 667 670 672 674 676 679 681 684 686 689 691 693 694 696 698 699 700 701 702 703 704 706 706 707 708 708 709 709 709 710 711 711 712 714 717 719 720 722 723 724 724 725 726 726 727 728 729
583 582 581 581 582 583 584 584 584 586 591 595 599 602 604 605 605 607 608 609 610 612 614 617 620 625 629 633 637 641 644 648 652 654 657 660 662 665 667 669 671 674 676 678 681 683 686 688 690 692 693 695 696 697 698 699 700 701 703 704 705 706 706 706 707 707 707 707 708 709 710 713 715 717 718 719 720 721 722 722 723 724 725 726 728
Wind_Speed
32 34 35 36 36 37 37 37 38 39 39 39 39 40 40 39 39 39 38 38 38 36 35 35 34 33 33 33 33 33 33 33 33 33 33 33 34 34 35 35 35 36 36 36 36 36 36 36 36 37 38 39 40 39 37 38 37 36 35 36 37 35 31 27 17 9 14 20 22 26 28 28 31 33 32 30 28 26 23 21 19 17 15 13 10
30 31 32 33 35 37 37 37 37 37 37 38 39 39 39 39 39 38 38 38 37 36 35 35 34 33 33 33 33 33 33 33 33 32 33 34 34 34 35 35 36 37 37 37 37 37 36 37 37 38 37 36 35 34 33 33 33 33 35 34 34 35 35 32 24 14 13 17 20 23 26 29 32 34 34 33 31 27 24 22 20 18 16 13 11
28 29 30 31 33 35 35 36 36 35 36 38 39 40 40 39 38 38 38 37 36 35 35 34 34 33 33 33 33 33 33 33 32 33 33 34 34 34 35 36 36 37 36 36 35 35 34 35 34 31 29 29 31 31 31 31 32 32 33 33 34 36 38 35 28 20 17 18 21 24 27 30 33 34 34 33 29 26 25 22 20 19 17 13 12
24 26 28 30 32 33 34 35 35 36 37 39 39 40 40 39 38 37 37 36 36 36 35 34 33 33 33 33 33 33 33 33 33 33 33 34 34 34 35 36 36 36 35 34 33 33 33 32 30 27 26 27 28 29 29 29 30 29 29 33 35 34 34 33 28 23 20 20 21 25 29 32 33 33 33 31 28 26 24 22 21 20 16 14 13
21 23 26 28 30 32 33 34 35 37 38 39 39 39 39 38 37 37 36 36 36 35 34 34 33 33 33 33 33 33 33 33 33 33 33 34 34 34 35 35 34 34 34 34 34 34 33 32 31 29 27 25 24 26 28 28 26 25 29 33 34 32 31 31 29 26 23 23 24 24 27 30 31 31 32 32 29 27 25 23 22 20 16 15 14
20 22 24 26 29 31 33 34 36 37 38 38 38 37 36 36 36 36 35 35 35 34 34 33 33 33 33 33 33 33 33 32 33 33 33 33 33 33 33 32 31 31 31 32 33 33 33 32 31 29 27 24 24 25 27 27 25 27 32 34 32 32 32 31 31 29 26 26 26 26 29 32 30 29 31 32 31 29 26 24 22 19 16 15 15
21 23 24 26 29 31 33 34 35 36 36 36 36 35 35 34 34 34 33 33 33 33 33 33 33 32 33 33 33 32 32 32 32 32 31 30 31 31 31 30 30 31 30 31 32 31 31 29 28 27 26 24 24 25 25 26 28 31 34 33 32 33 32 32 31 29 25 24 24 25 28 31 29 29 31 31 28 26 26 24 22 20 17 16 16
23 25 25 27 30 32 32 32 32 33 33 33 33 33 33 33 33 32 32 32 32 32 32 32 31 31 31 32 32 31 31 31 31 30 29 29 29 29 28 29 30 31 31 31 31 30 28 26 26 26 26 25 25 25 25 26 30 34 34 33 32 32 31 30 29 27 24 24 24 25 26 28 27 26 27 28 27 26 27 25 22 20 18 17 16
24 26 27 30 33 32 31 30 30 30 30 31 32 32 32 31 30 30 30 30 31 31 30 30 30 30 30 30 30 30 30 30 30 29 28 27 27 27 27 28 29 30 30 29 29 30 28 27 26 25 24 24 24 24 24 25 29 33 35 34 33 31 29 29 28 27 25 24 23 24 24 25 27 27 28 31 32 30 29 27 23 20 18 17 17
24 26 29 32 33 31 29 29 28 28 28 29 30 30 30 29 28 28 28 28 28 28 27 27 28 29 29 28 28 28 28 29 28 26 25 25 26 27 27 27 27 28 28 27 27 27 28 27 26 25 23 23 23 23 24 26 29 33 33 32 32 32 31 29 29 29 29 26 26 26 24 24 29 32 33 35 35 30 27 26 24 21 18 16 15
25 27 30 31 30 28 29 28 27 27 27 27 27 27 27 26 25 26 25 25 25 24 24 24 25 25 25 25 25 25 25 24 22 22 22 24 25 26 25 25 26 26 26 25 25 25 25 27 26 23 22 22 22 22 24 27 30 31 30 29 29 30 31 31 31 31 30 28 27 28 27 26 31 35 35 33 33 31 26 25 24 21 18 14 11
27 28 29 29 27 27 27 27 27 28 27 27 26 25 23 22 23 23 22 22 21 21 22 23 23 22 22 22 22 22 21 20 20 20 21 22 23 24 24 24 24 24 25 24 23 23 23 25 23 21 21 21 20 21 24 27 28 27 26 27 27 28 29 30 29 30 31 30 28 29 31 30 32 36 36 33 33 31 26 23 23 21 19 17 13
28 28 28 27 26 26 25 25 26 27 27 26 25 23 22 23 23 23 22 22 21 21 22 22 21 21 21 21 22 21 20 20 20 20 20 20 21 21 22 22 22 23 24 24 23 22 22 23 22 22 21 19 19 21 23 25 25 25 25 25 26 26 27 29 28 28 31 34 33 34 36 34 33 36 37 35 33 31 27 25 24 22 19 18 16
28 27 27 27 26 25 24 24 25 25 25 24 24 23 24 25 26 25 25 24 24 24 23 22 22 22 22 21 21 21 21 20 19 18 18 18 19 19 19 19 20 22 23 23 22 22 22 23 23 22 20 19 20 22 24 24 24 25 25 25 25 26 27 28 29 28 29 33 35 35 35 35 33 33 35 34 32 29 27 25 23 22 19 17 14
27 27 27 27 27 26 25 24 24 23 23 22 22 23 24 25 26 26 26 27 27 27 25 24 23 23 23 23 22 22 23 23 22 22 21 18 18 19 18 17 18 20 21 21 21 22 23 24 22 20 19 19 20 22 23 24 24 25 25 25 26 26 26 28 29 28 26 28 30 29 28 29 29 28 30 33 31 26 23 19 16 18 18 15 13
27 27 28 29 30 29 28 26 25 23 22 22 23 24 25 25 24 24 24 25 25 25 25 25 24 24 23 22 22 22 23 24 25 26 24 21 20 19 18 17 17 19 20 21 22 23 23 22 20 18 18 19 19 20 22 23 24 25 25 24 24 24 25 26 27 27 26 25 26 25 24 24 26 25 26 30 30 26 21 15 13 15 16 13 12
29 29 30 32 33 32 30 28 27 26 24 24 26 26 26 25 24 22 22 22 22 23 24 24 24 24 23 23 23 23 24 24 25 25 24 23 21 19 18 17 17 19 20 21 22 22 20 19 18 17 18 18 18 19 21 23 23 23 23 23 23 23 24 25 25 26 26 25 25 25 24 23 23 24 24 26 28 26 20 17 17 18 16 13 11
31 31 33 36 36 35 33 31 29 28 28 28 29 28 26 25 24 22 23 23 23 23 23 23 23 24 24 24 24 24 24 24 23 23 23 22 21 20 19 18 18 18 19 20 20 19 18 17 16 16 17 17 18 19 21 23 23 24 23 23 23 23 25 26 26 24 24 24 23 23 23 22 21 22 21 21 23 22 19 18 20 20 19 16 13
34 36 39 40 39 36 34 32 31 31 31 31 30 29 27 25 24 22 22 22 22 22 22 23 24 24 24 24 23 23 23 23 23 22 22 22 22 21 20 19 18 18 18 18 18 17 17 17 16 16 16 17 18 19 21 23 24 24 24 23 24 25 26 26 26 24 23 23 22 21 21 19 18 19 20 19 19 19 19 20 20 19 19 18 15
38 42 43 40 36 35 34 33 33 33 33 32 29 27 26 25 24 23 23 22 21 22 23 24 24 24 24 23 23 23 23 23 23 22 22 22 22 21 21 20 19 18 18 18 18 18 18 18 16 16 16 17 18 18 19 21 23 23 23 23 24 25 25 25 25 24 22 21 21 19 19 18 17 18 20 20 20 20 21 21 20 18 17 17 17
41 43 42 37 35 35 35 35 35 34 32 30 27 26 25 25 25 25 25 24 23 23 24 24 24 23 24 24 23 23 23 23 22 21 21 21 21 21 21 20 19 19 19 19 19 18 20 20 18 18 18 18 18 18 18 19 20 21 22 22 22 22 22 23 24 23 21 20 19 18 18 18 19 19 20 21 22 23 23 22 20 18 17 16 16
41 41 39 37 36 36 36 35 35 33 31 28 27 27 26 26 25 25 26 27 26 25 25 25 24 24 24 23 23 23 23 23 22 21 20 20 20 21 20 18 17 17 17 17 18 18 19 20 18 18 18 18 18 17 17 16 18 19 20 20 20 19 19 21 23 22 21 20 19 19 19 19 20 21 22 23 24 25 24 21 19 18 17 16 16
39 38 37 36 36 36 36 36 35 33 31 29 29 28 27 27 26 25 26 27 27 26 25 25 25 25 25 25 24 24 23 23 22 21 20 20 20 20 18 17 16 16 16 16 16 17 18 18 16 15 16 16 16 16 16 15 17 18 18 19 19 18 17 19 22 22 21 20 20 20 21 21 22 23 24 25 26 25 22 20 19 18 18 17 16
35 35 36 36 35 36 36 35 34 33 31 30 29 28 28 28 28 27 27 27 27 26 26 26 25 24 23 24 25 24 23 22 21 21 21 20 20 20 18 17 16 15 15 15 14 15 14 14 14 13 13 13 14 14 15 15 16 17 18 18 19 18 18 19 21 22 22 21 22 22 23 24 24 25 26 26 24 22 21 20 20 20 19 17 15
32 34 35 35 35 35 34 33 33 32 31 30 30 30 30 30 29 29 29 28 27 25 25 25 25 23 22 22 23 24 23 22 21 21 21 21 20 20 19 18 16 15 15 14 13 13 12 11 11 10 10 11 12 12 14 15 15 15 17 19 19 19 19 19 21 22 23 23 23 24 24 25 24 24 24 23 22 22 22 22 22 20 18 17 16
32 34 34 34 34 33 31 30 30 30 30 31 31 31 31 31 30 29 29 29 27 26 24 24 23 22 21 21 22 23 23 23 22 21 21 21 21 20 19 17 16 15 14 13 12 12 11 10 10 9 10 10 11 12 14 14 14 15 17 19 19 19 20 20 22 23 23 24 24 24 23 23 23 23 22 21 22 23 24 23 22 20 19 18 18
32 32 32 33 32 32 31 30 30 30 30 31 31 30 31 31 30 28 28 28 27 25 24 24 24 23 21 21 21 22 23 23 23 23 23 23 22 21 19 18 17 15 14 14 13 12 12 11 9 9 9 10 11 12 14 15 15 16 17 19 19 19 20 20 21 21 22 22 22 21 21 20 20 20 21 20 21 23 23 22 22 21 21 19 19
31 32 32 32 31 31 32 31 30 30 31 32 32 32 32 33 32 33 34 34 32 29 27 26 26 25 23 21 19 19 20 24 26 26 25 24 24 23 21 20 19 18 17 17 16 14 13 12 11 11 11 13 13 14 15 16 17 17 18 19 19 18 18 18 19 19 19 19 19 19 19 19 18 18 18 19 20 21 21 21 22 22 21 19 19
31 31 30 29 29 29 29 30 30 29 29 30 32 32 33 35 35 34 35 35 33 31 29 28 26 25 23 23 21 20 21 26 29 28 25 24 25 25 24 23 22 21 20 20 18 17 15 15 15 15 16 17 17 17 18 18 18 18 18 18 18 18 18 19 19 19 19 19 18 18 17 16 16 15 15 16 17 18 19 20 21 21 20 20 20
28 28 27 26 27 27 28 28 29 29 28 28 29 29 30 32 33 31 31 31 31 30 29 28 28 26 25 26 27 25 25 27 27 26 24 24 24 24 24 24 23 23 22 20 19 18 18 18 18 18 19 19 19 19 20 21 20 20 19 19 18 19 19 19 20 19 19 19 18 17 16 15 14 14 14 15 16 17 18 19 19 19 19 20 21
26 25 25 27 28 29 28 28 28 29 28 28 28 26 25 26 29 30 30 30 30 30 29 28 28 28 27 28 28 26 24 23 24 26 26 23 23 23 22 21 21 21 21 21 20 19 20 19 19 19 20 20 20 20 21 22 21 20 20 19 19 19 19 19 20 19 18 17 17 16 15 15 14 14 14 15 15 16 17 17 18 19 20 20 21
26 25 27 28 29 29 28 27 27 27 27 27 27 26 23 21 22 25 28 29 29 30 30 29 28 28 27 27 27 26 23 20 20 23 24 22 22 21 20 18 19 19 20 20 20 20 20 20 20 20 20 20 20 21 21 22 21 20 20 19 19 19 20 20 19 18 17 17 16 16 16 15 15 15 15 15 15 16 16 17 18 20 21 21 21
30 29 28 28 28 28 27 27 27 28 28 27 27 27 25 23 23 23 23 23 25 26 27 28 27 25 25 25 24 24 23 20 18 19 21 21 21 20 19 18 18 19 21 21 20 19 20 20 20 20 21 21 20 20 21 21 21 20 20 20 19 19 19 18 18 17 17 16 16 16 16 16 15 15 15 15 15 16 16 17 18 19 20 20 21
33 31 29 28 28 28 28 28 28 28 28 28 27 27 27 26 25 23 21 20 21 22 23 24 23 22 22 23 22 20 20 19 19 20 20 21 21 21 20 19 17 18 20 21 20 20 20 20 19 19 20 20 19 20 20 20 20 20 19 19 18 17 16 17 17 16 16 16 16 16 16 16 16 16 15 15 15 16 17 17 18 19 19 20 20
32 31 30 29 29 28 29 29 28 27 27 27 27 27 27 26 24 24 23 23 22 21 21 21 21 21 21 23 22 20 19 19 20 21 21 22 23 23 22 21 20 19 20 20 20 19 20 20 19 19 19 18 18 18 18 18 18 18 18 17 16 15 15 15 15 15 15 15 15 15 15 15 16 15 15 15 16 17 17 18 18 19 19 19 19
29 29 28 28 29 28 28 29 29 28 27 27 27 26 25 24 24 24 24 23 21 20 20 21 21 20 21 22 22 21 21 21 21 22 23 23 24 25 25 23 21 20 20 20 19 18 18 18 18 17 16 16 15 15 15 15 15 15 15 15 15 15 14 14 13 13 13 13 13 13 13 14 14 14 15 16 17 17 18 18 18 18 19 18 18
27 27 27 28 29 28 27 27 28 27 26 26 25 24 24 24 24 24 23 23 22 21 21 23 23 21 20 22 23 23 23 22 21 21 22 23 24 25 25 24 22 21 20 20 19 18 17 16 15 14 13 13 12 12 12 11 11 11 11 12 13 13 12 12 11 11 11 11 11 11 12 12 13 13 14 15 16 17 17 17 17 17 18 18 17
28 28 28 28 28 27 26 25 25 26 25 25 25 25 25 24 24 24 23 23 23 22 23 24 25 23 23 23 24 25 25 23 22 22 23 23 24 25 24 24 23 22 21 21 20 19 17 15 13 12 11 11 10 10 10 9 9 9 9 10 10 10 10 10 10 10 10 10 10 10 11 11 12 13 13 15 16 16 16 16 17 17 17 17 17
26 27 27 27 27 27 26 24 24 25 25 25 25 25 25 24 24 23 23 22 22 22 23 24 24 24 26 28 28 28 28 26 25 26 25 25 25 25 24 24 23 22 21 22 20 18 16 15 14 13 12 11 10 10 10 9 9 9 9 9 9 10 10 10 10 10 10 10 10 9 10 10 11 11 13 14 15 15 15 16 16 16 17 17 18
24 25 25 26 26 27 26 24 24 25 25 25 26 26 26 25 24 24 23 22 22 22 24 25 25 26 30 33 33 32 30 26 26 27 27 27 26 25 24 25 24 24 23 22 20 19 18 17 15 14 13 13 12 11 11 11 10 10 9 9 9 9 9 9 9 9 9 9 9 8 8 8 9 10 12 13 13 14 15 15 16 16 16 17 17
23 23 24 25 26 25 24 24 25 25 25 25 25 25 25 25 25 25 25 24 24 24 25 25 26 29 33 34 35 34 30 28 28 28 28 27 27 26 26 26 26 26 25 23 21 19 18 17 16 15 15 15 14 13 13 12 11 11 10 10 9 8 8 8 8 8 8 8 7 7 7 7 8 9 11 12 12 13 14 14 15 15 15 15 15
22 22 23 24 24 24 23 23 23 23 23 24 24 24 24 24 25 25 24 24 24 24 23 23 26 30 33 34 34 33 31 30 30 30 29 28 28 27 27 26 26 25 24 23 21 20 18 17 16 16 16 16 15 15 15 14 13 12 12 11 10 9 9 8 8 8 8 8 8 7 7 8 9 10 10 11 11 12 13 13 14 14 14 15 14
22 22 22 22 24 24 24 22 22 22 23 24 24 25 25 25 25 25 24 23 24 24 23 23 26 30 32 33 33 33 32 31 32 31 31 31 30 28 27 26 24 23 23 22 20 20 19 19 18 17 17 16 16 15 15 14 14 13 13 12 11 11 10 10 10 10 10 9 9 9 9 9 10 11 11 12 12 13 13 14 14 14 14 14 14
22 21 21 21 22 23 22 22 22 22 23 23 23 24 25 25 25 25 25 24 25 26 26 26 29 31 31 32 33 33 32 32 32 32 32 31 31 29 27 26 24 24 23 22 21 20 20 20 19 18 17 16 15 15 14 14 13 13 13 13 12 12 12 12 12 11 11 11 11 11 11 11 12 12 12 13 13 13 13 14 14 13 13 13 13
22 21 20 20 20 20 20 21 21 21 21 21 21 22 24 25 25 25 25 25 25 26 27 29 31 32 31 31 32 31 31 31 31 31 31 31 30 29 28 27 26 25 24 23 22 21 20 19 19 18 17 16 15 14 13 13 12 12 12 12 12 12 13 13 13 13 13 13 12 12 12 12 13 13 13 13 13 13 13 14 13 13 13 13 12
21 21 20 20 19 19 19 19 19 20 20 21 20 20 22 23 24 25 25 25 25 26 27 28 30 31 31 30 30 29 29 30 30 31 31 31 30 29 29 27 26 25 24 22 21 20 18 18 17 16 16 15 14 13 12 12 12 12 12 12 12 13 13 14 14 13 13 13 13 13 13 13 13 14 13 13 13 13 13 13 13 13 13 13 13
21 20 20 20 19 18 18 18 18 19 19 19 19 20 20 21 22 23 24 24 25 25 25 26 27 28 28 28 28 28 29 30 30 31 31 31 31 30 29 27 26 25 23 21 20 18 17 17 15 15 14 13 12 12 12 11 11 11 11 11 12 12 13 13 13 13 13 13 13 13 13 13 14 14 14 14 14 14 14 14 13 13 13 13 13
20 19 19 20 20 19 18 18 18 18 18 18 18 18 19 19 20 21 23 24 25 26 25 25 25 25 26 27 27 28 29 30 30 31 31 31 30 29 27 26 25 23 22 21 19 18 17 15 14 13 12 12 11 11 10 10 10 10 10 10 10 11 11 12 12 12 12 13 13 13 13 13 14 14 14 14 14 14 14 14 14 13 13 13 14
19 19 19 19 20 21 21 21 20 19 18 17 17 17 18 18 19 20 22 24 25 26 26 26 26 26 26 27 27 28 30 30 31 31 30 29 28 27 25 23 22 21 20 19 17 16 15 14 12 12 11 10 10 9 9 8 8 8 9 9 9 9 9 10 10 10 11 12 12 13 13 14 14 15 15 15 14 14 13 13 13 13 13 13 13
19 19 18 19 19 19 21 22 21 20 19 18 18 17 18 18 19 20 22 24 25 26 27 28 28 29 29 30 30 30 31 31 31 30 29 28 26 25 23 22 20 18 17 16 15 14 12 11 10 9 9 8 8 7 7 7 7 7 7 7 7 7 7 7 7 8 8 9 10 11 12 13 14 15 15 15 14 13 13 13 12 12 12 13 13
16 16 16 17 17 18 19 20 21 21 21 21 20 19 19 19 20 21 22 24 25 27 29 30 32 32 32 32 32 32 32 31 30 29 28 26 25 23 22 21 19 17 16 14 13 12 11 9 9 8 8 7 7 7 7 6 6 6 5 5 5 5 5 5 6 6 6 7 7 8 9 10 12 13 14 14 13 12 12 11 11 12 12 12 12
Wind_Direction
235 235 235 233 233 234 235 236 236 236 236 236 236 237 238 238 238 240 241 242 242 242 242 243 243 243 243 244 245 245 245 245 245 243 241 241 241 241 242 241 241 243 244 244 244 244 243 244 247 249 248 246 244 244 244 243 238 230 226 224 221 222 220 213 216 216 200 209 216 213 213 210 207 210 214 216 219 221 225 232 238 245 253 257 265
237 237 237 235 236 237 237 237 237 237 236 237 237 238 238 239 239 239 240 241 241 241 242 243 243 243 243 244 245 245 244 244 244 243 241 240 241 241 241 240 241 242 243 243 243 244 244 245 248 249 246 243 241 240 240 239 237 231 225 222 221 224 224 218 214 206 190 198 206 206 207 207 206 210 213 216 218 220 224 230 234 241 248 252 262
241 239 238 238 239 239 239 239 238 238 237 237 238 238 239 240 239 239 239 241 241 241 243 244 243 244 243 244 245 244 244 243 242 242 241 241 241 241 241 241 241 241 241 241 242 242 242 243 245 246 245 245 243 242 242 240 238 233 226 224 226 228 226 219 213 204 190 191 199 201 200 203 207 211 213 215 219 221 224 229 234 238 242 248 261
243 241 240 240 241 240 240 240 238 238 238 238 239 239 240 240 239 240 240 241 242 243 244 244 244 244 243 243 244 243 244 244 243 242 241 242 242 243 244 244 243 243 243 244 247 247 246 246 248 251 250 246 243 241 242 240 237 231 226 225 226 226 225 219 215 210 196 187 194 201 200 200 205 210 210 210 214 220 223 226 231 236 240 248 259
245 244 242 242 242 240 241 240 238 238 239 239 240 240 240 240 240 241 241 242 243 244 244 243 242 242 242 243 243 244 245 245 244 244 243 244 244 245 245 245 245 245 246 250 252 251 250 251 253 254 250 244 241 242 243 241 237 232 228 226 224 225 227 223 218 216 208 194 190 195 199 200 203 207 208 206 208 214 219 224 229 233 237 246 255
247 246 243 242 242 242 241 240 239 239 239 240 240 240 241 241 241 242 241 242 243 243 243 243 242 242 242 244 244 245 246 246 245 246 245 246 246 246 246 247 249 250 250 253 254 252 251 252 252 251 250 248 246 246 245 239 234 230 227 226 225 225 226 222 216 214 211 201 192 190 195 199 200 202 205 208 209 211 214 220 226 230 236 244 251
247 247 245 243 242 242 241 240 240 240 240 241 241 241 241 241 241 242 242 241 242 242 242 242 242 242 243 244 244 244 245 246 245 245 246 247 247 247 248 250 252 253 253 255 255 253 250 248 249 252 253 252 248 246 243 235 229 227 225 225 226 222 219 216 210 206 204 197 191 192 194 197 200 200 202 205 211 215 216 217 221 226 232 240 249
249 248 246 245 245 245 244 242 241 241 241 241 242 241 241 241 240 241 241 240 240 241 241 241 242 243 243 244 245 245 245 245 245 245 245 247 248 248 249 251 252 253 254 255 254 254 253 250 252 255 253 251 248 245 242 235 227 223 222 224 225 219 213 208 201 198 196 192 192 195 193 193 198 200 198 198 205 214 218 218 222 227 231 237 247
250 249 246 247 249 248 246 245 244 243 242 241 240 240 240 240 239 239 239 239 239 240 240 241 241 241 242 242 243 243 243 243 243 244 244 245 246 248 249 251 252 252 252 252 252 252 254 253 251 250 249 249 250 249 246 240 231 224 221 222 221 214 208 202 196 192 190 190 194 194 189 191 196 195 194 198 204 211 214 215 220 228 231 235 246
249 248 248 250 251 249 247 246 244 242 241 240 239 239 238 238 238 238 238 239 239 238 238 239 239 240 240 240 240 240 241 242 242 242 243 245 245 246 248 250 252 251 249 248 248 247 247 246 244 244 248 249 249 248 244 240 236 232 227 224 220 213 206 200 198 195 192 192 194 191 188 193 197 196 198 203 207 210 211 212 215 222 226 233 246
249 247 249 252 250 248 246 244 242 240 239 239 237 237 237 236 236 237 237 238 238 236 235 234 235 237 237 236 236 237 237 238 239 240 241 244 245 245 246 248 249 248 247 245 245 245 241 236 236 241 248 248 247 247 244 240 237 233 229 228 228 225 217 208 201 197 195 198 199 195 193 197 200 200 202 205 206 208 211 211 211 216 220 225 238
249 247 248 249 248 246 244 242 240 239 237 236 234 233 233 232 232 233 233 233 232 231 230 231 232 232 232 232 234 234 236 236 237 239 241 243 244 245 245 245 244 244 243 243 244 244 238 233 236 243 248 247 246 245 241 237 234 231 229 230 232 233 232 227 218 209 205 204 202 200 201 201 200 201 203 204 204 206 209 211 213 216 221 224 227
248 244 245 246 245 244 243 240 239 237 234 233 231 228 226 226 226 227 226 226 225 224 225 226 226 226 227 228 228 227 230 232 231 235 238 237 238 239 241 241 242 242 241 240 240 239 237 237 240 243 243 242 243 242 237 232 229 228 229 230 231 232 233 233 232 229 224 217 210 207 207 205 204 205 205 204 203 203 204 209 214 218 224 228 230
247 243 243 244 244 242 240 239 238 237 234 232 229 227 226 225 225 225 224 224 223 223 223 224 223 223 223 225 223 222 226 229 230 232 232 231 231 232 234 236 240 242 240 237 237 237 240 242 242 240 238 237 238 236 232 228 225 222 223 225 228 228 227 226 226 229 230 224 218 215 213 211 212 214 209 204 205 208 208 211 218 222 223 226 230
246 244 243 243 243 240 237 235 236 235 232 229 227 226 227 227 227 226 226 227 227 227 227 226 225 223 222 223 222 222 225 228 231 235 235 232 230 230 230 231 234 237 236 235 237 239 242 243 241 239 237 237 238 235 231 228 224 220 220 222 223 224 224 224 224 224 224 223 219 219 217 216 218 219 211 206 209 214 214 218 228 226 219 217 222
246 244 244 244 243 239 234 231 230 229 227 224 224 224 224 226 226 226 227 229 229 228 226 225 223 221 219 220 221 224 227 226 228 231 232 230 227 225 225 226 228 230 231 233 236 239 240 239 238 238 239 238 239 236 231 227 223 219 217 218 221 223 222 221 222 222 221 220 219 222 224 225 226 224 217 211 212 214 212 215 221 215 206 202 213
244 244 244 245 244 240 234 228 225 224 223 222 223 224 223 223 223 222 223 224 223 221 220 219 220 220 220 221 224 225 225 223 222 223 222 221 221 220 219 219 223 227 230 234 236 235 235 236 236 238 239 240 241 236 229 224 220 218 216 216 218 220 218 218 219 220 219 219 222 226 230 234 232 228 223 218 215 214 213 212 211 204 196 195 209
242 242 244 246 245 241 235 228 223 221 221 223 224 223 222 221 219 218 219 221 221 220 220 220 220 221 221 221 221 220 219 218 217 217 217 216 217 217 216 215 217 223 229 232 233 231 231 232 234 236 237 238 238 235 229 224 220 217 215 214 214 214 213 213 213 214 215 216 220 225 227 231 231 225 221 217 212 215 223 224 216 206 200 203 211
243 244 246 247 245 240 235 229 225 222 223 225 225 224 223 220 218 217 218 222 224 222 220 220 219 218 218 218 218 218 218 219 219 218 216 214 215 215 214 210 209 214 222 226 227 229 232 233 232 234 235 235 234 232 228 225 221 219 216 214 214 215 214 211 209 210 211 211 214 217 217 218 218 214 212 210 209 217 228 228 220 212 210 212 211
252 250 249 247 243 239 235 230 228 226 225 226 225 224 223 219 215 214 214 218 222 221 219 217 216 217 217 217 218 219 220 220 219 217 214 213 213 213 210 205 203 206 214 221 225 230 233 232 230 230 232 233 232 230 228 225 223 222 221 220 222 222 217 210 208 210 211 209 208 209 209 208 209 209 209 211 215 221 224 222 220 219 219 221 217
257 253 249 246 242 239 235 232 230 229 227 225 222 221 221 218 216 212 210 212 215 217 218 216 217 219 218 216 217 218 220 221 219 216 213 212 212 212 208 204 203 206 210 217 224 230 234 232 228 226 227 229 228 226 225 224 224 226 228 229 233 232 221 212 209 208 208 207 204 203 205 207 208 210 213 216 220 224 223 220 219 219 223 229 228
256 252 248 245 241 238 235 232 230 228 226 222 219 217 216 216 215 211 208 208 210 213 215 215 218 221 220 218 218 217 217 218 217 214 211 208 208 209 206 201 201 203 206 213 222 229 234 235 232 228 227 228 227 226 225 224 224 227 231 232 232 231 222 214 210 206 204 204 203 203 206 209 211 214 217 219 222 224 223 220 218 220 226 230 231
254 249 245 242 239 236 233 231 228 225 222 219 215 213 211 211 210 208 207 207 207 210 213 214 217 219 218 217 218 216 215 213 211 210 208 206 206 206 203 200 200 202 206 214 223 230 235 240 240 236 232 230 227 225 223 223 223 225 228 228 226 223 218 212 208 205 203 202 203 205 209 213 216 219 221 222 223 223 223 221 220 222 224 225 228
251 245 242 239 236 235 231 228 225 222 219 214 210 209 208 206 206 205 205 204 204 206 210 210 211 212 213 213 214 214 213 211 208 207 206 206 205 204 202 200 198 201 205 213 223 231 238 244 244 236 229 225 222 219 218 219 222 221 220 220 218 214 210 206 205 203 202 202 204 209 215 219 221 223 225 225 225 224 223 223 223 223 222 223 228
247 242 239 235 233 232 228 224 221 218 215 209 205 205 204 202 202 202 201 201 201 203 206 206 206 207 209 211 211 212 212 211 208 205 204 204 204 202 201 200 197 197 201 208 216 223 229 236 235 225 218 213 208 207 210 213 215 214 213 213 211 208 206 204 202 201 202 205 210 215 221 224 226 227 228 227 227 226 225 225 226 226 226 226 230
244 240 235 232 231 227 222 219 216 214 212 209 206 205 202 200 201 200 199 199 200 202 203 203 204 206 208 209 210 209 209 208 207 204 202 202 200 199 198 197 197 197 198 201 208 213 215 218 216 208 203 202 200 199 201 205 207 206 208 210 209 207 207 205 203 205 208 212 217 221 225 228 229 230 230 228 227 227 227 229 231 233 234 233 233
242 237 232 229 226 220 216 213 210 209 209 206 205 206 205 203 202 200 199 199 200 202 203 202 203 204 205 205 206 205 204 204 203 201 199 197 196 194 194 193 193 193 193 194 199 202 201 200 200 197 191 188 192 195 196 198 198 197 201 208 210 211 212 213 214 216 218 221 224 225 227 229 230 231 231 230 230 230 231 234 237 238 237 235 235
239 234 231 225 219 215 212 209 205 205 205 203 203 203 204 204 204 204 205 203 200 200 201 202 204 204 201 198 196 196 200 203 202 200 199 197 194 191 189 189 189 189 189 190 191 193 193 188 184 182 180 178 182 187 189 192 195 196 200 205 208 210 213 214 218 221 223 225 226 225 225 226 228 231 233 233 233 234 235 235 235 236 235 233 234
237 233 229 222 216 212 210 208 205 204 203 204 205 206 206 206 207 210 212 211 207 205 203 202 205 204 200 199 197 196 201 207 206 203 203 204 202 196 192 191 190 189 190 190 187 183 182 183 180 177 176 177 179 182 184 187 190 195 200 203 205 206 209 211 214 217 218 220 221 221 222 223 225 230 232 234 235 237 236 234 232 232 231 230 234
234 229 223 218 215 210 207 207 206 203 201 202 204 208 211 212 212 214 216 217 216 213 210 209 210 209 208 211 212 213 217 218 211 204 204 207 206 200 196 193 190 188 187 187 186 181 178 179 180 180 179 179 180 183 186 187 188 191 197 201 204 206 208 212 215 216 218 218 219 221 222 223 225 229 231 233 235 236 236 235 231 230 229 231 236
230 225 219 216 215 211 207 206 204 202 202 201 200 201 206 211 215 218 219 219 219 218 218 218 218 218 218 218 218 220 224 223 214 206 203 201 199 195 193 192 190 189 187 184 182 182 182 181 182 183 185 185 184 185 187 188 189 190 193 199 205 209 210 212 214 215 218 218 219 222 225 226 229 232 233 234 235 236 236 235 231 229 231 233 238
229 225 220 216 215 213 209 205 202 200 200 200 199 198 197 198 205 213 217 219 219 219 219 219 219 219 219 219 219 218 217 215 211 206 201 195 191 190 189 189 189 190 189 186 184 185 187 187 186 186 188 188 188 187 186 188 190 192 193 198 205 211 214 216 216 217 219 220 221 222 226 229 231 233 235 234 234 234 234 233 230 230 232 234 237
230 228 223 216 212 210 208 205 202 201 200 198 198 197 195 194 195 198 203 209 214 216 217 217 216 216 215 216 217 216 212 208 205 203 199 192 186 184 184 186 188 187 186 187 187 187 190 191 191 192 192 192 193 191 189 190 193 195 198 201 206 212 217 218 219 221 222 224 226 227 229 232 232 232 232 233 233 234 234 233 233 232 232 235 238
234 232 227 219 212 208 206 205 203 202 202 201 199 199 200 201 198 190 182 183 191 200 207 210 210 210 208 207 207 206 205 203 199 197 193 188 183 181 179 179 182 187 190 192 192 191 191 193 195 196 196 196 197 196 195 197 198 200 203 207 209 212 215 216 218 221 222 224 227 228 230 232 231 230 230 231 232 234 234 234 234 233 233 236 240
236 237 233 225 217 211 208 207 204 203 203 203 203 204 203 202 199 192 185 182 182 184 188 193 197 199 198 196 195 194 194 194 191 188 186 182 180 177 172 167 170 180 189 196 198 196 195 195 197 198 199 199 200 201 202 204 205 206 209 211 210 212 214 215 218 221 223 225 228 231 233 234 234 233 233 231 231 233 233 234 236 237 238 241 243
235 237 234 228 222 216 211 209 205 204 205 204 204 206 203 200 198 194 191 189 185 178 175 176 180 186 189 189 188 187 187 187 184 180 180 181 179 176 171 167 169 175 183 191 197 197 198 199 198 197 198 199 200 203 205 208 211 213 215 216 215 216 219 220 222 224 226 229 232 234 236 237 237 237 236 234 236 238 239 240 242 242 244 246 247
232 234 232 228 224 218 214 211 208 206 206 204 202 202 200 199 198 194 190 188 183 176 170 167 166 170 176 181 182 182 181 181 179 176 176 178 178 179 177 174 172 174 180 187 191 192 193 194 193 193 194 195 196 199 202 206 211 214 215 218 220 222 225 228 229 230 230 233 235 237 239 242 242 241 239 238 240 241 242 244 246 247 248 250 249
231 232 230 228 224 218 214 212 208 205 203 201 200 199 197 196 196 193 190 187 181 174 169 167 167 167 167 170 174 174 171 169 167 166 168 170 173 178 180 177 175 177 181 185 189 189 187 185 185 186 186 186 186 187 190 194 200 205 209 213 217 221 225 227 228 229 231 233 235 238 241 244 246 246 245 245 245 246 247 248 248 249 249 248 247
232 232 230 228 223 218 215 210 205 202 200 198 198 197 195 193 192 190 188 184 179 175 171 169 171 172 169 168 170 169 166 163 162 161 162 166 172 176 177 176 176 178 181 184 186 187 184 183 182 183 181 179 177 176 176 178 183 190 197 203 208 213 218 220 222 225 227 229 233 236 239 244 249 250 251 251 251 253 254 254 253 252 251 251 251
231 229 228 225 221 218 216 210 205 202 199 197 196 194 193 193 190 188 185 182 179 178 175 174 176 177 174 172 173 172 169 166 164 163 163 165 169 173 174 175 176 178 181 183 183 182 180 179 178 176 173 171 168 167 167 171 174 179 189 196 201 208 213 217 222 226 228 229 232 234 238 244 249 251 253 255 258 260 260 259 260 259 258 258 260
228 226 224 221 218 217 216 211 207 205 201 199 198 196 195 194 190 187 186 184 182 180 179 178 179 178 177 178 180 180 176 170 166 165 164 165 168 171 174 177 179 179 181 181 180 176 172 169 166 164 161 162 163 164 166 171 175 180 187 192 196 201 208 213 219 225 228 230 232 235 241 248 252 254 257 260 262 263 262 262 263 263 262 263 263
226 222 221 217 213 213 213 211 209 206 202 201 200 199 196 194 191 189 187 185 182 179 177 177 177 177 179 181 183 183 180 174 169 167 167 167 169 173 176 180 180 179 179 178 176 173 168 164 163 164 165 165 168 170 172 176 180 183 187 191 195 200 208 213 218 225 231 234 238 241 246 251 254 258 262 264 264 264 263 264 263 262 261 262 261
226 221 218 214 211 211 212 211 208 205 203 202 201 199 196 191 188 187 185 182 180 178 175 173 174 175 177 180 182 182 180 176 173 171 170 170 172 174 176 177 176 174 173 173 174 173 170 168 168 171 174 175 178 180 182 184 187 189 193 197 201 205 213 218 221 226 231 234 238 242 246 249 253 255 257 259 260 260 260 260 259 258 258 259 258
226 220 215 213 211 212 212 210 207 205 205 204 201 197 193 188 186 184 182 180 179 178 176 174 173 172 174 177 180 180 179 176 174 173 172 171 172 173 173 173 172 171 171 172 173 174 175 174 174 175 177 180 183 186 189 191 195 198 201 204 208 213 219 223 227 231 234 236 239 241 244 246 248 250 251 253 254 254 255 255 255 255 254 253 251
225 218 212 210 209 209 210 209 207 205 203 200 197 195 191 188 185 183 182 180 178 177 177 175 173 172 173 175 176 177 176 174 173 172 170 169 170 170 169 169 170 170 170 170 172 174 176 177 177 176 177 179 182 186 191 196 201 206 210 213 216 221 226 230 233 235 237 238 239 241 243 244 245 248 251 252 253 253 254 254 253 250 248 247 246
223 216 209 206 205 206 207 206 204 203 200 197 196 194 192 190 188 184 182 181 178 176 175 173 172 171 171 171 172 172 170 168 167 166 166 166 166 165 165 165 166 166 166 168 170 172 173 176 178 179 179 181 184 189 196 203 209 214 217 220 224 226 229 233 236 237 239 241 242 242 243 245 247 250 251 251 251 251 250 250 249 247 246 246 246
221 214 209 204 200 200 202 202 201 202 201 200 199 196 194 192 188 183 180 177 174 171 169 167 167 166 165 165 166 165 164 163 163 162 162 162 161 161 162 163 162 162 163 165 167 168 170 173 178 181 184 187 192 197 205 212 217 222 224 226 228 231 234 237 241 243 244 245 246 245 244 243 244 247 248 248 247 247 245 245 246 246 246 245 245
218 211 207 202 197 194 193 194 196 199 201 201 199 196 192 189 183 177 172 168 165 162 160 159 158 158 157 157 158 158 158 158 158 157 157 158 158 158 160 161 161 161 160 160 162 165 168 173 178 183 188 194 199 204 211 216 221 227 231 231 233 237 239 242 245 246 246 247 248 248 247 244 242 242 243 242 242 243 243 244 245 245 245 245 244
215 208 203 201 197 192 189 187 189 193 195 194 191 187 183 179 174 169 164 160 157 156 154 152 151 150 149 148 150 152 153 153 153 153 153 154 154 155 156 157 158 160 160 159 161 164 168 174 179 184 189 195 199 203 209 214 218 224 229 230 234 238 240 243 246 247 247 249 248 246 246 245 242 241 240 238 238 239 241 242 244 244 243 243 242
217 209 203 199 196 193 189 185 182 183 184 183 180 177 173 169 165 162 158 154 151 149 149 148 147 147 147 147 148 150 151 152 151 151 151 152 153 154 155 156 158 160 160 159 161 164 168 172 177 181 186 191 193 197 202 205 208 214 218 221 227 232 234 237 240 241 241 244 243 242 242 241 239 239 239 237 234 234 235 238 241 242 239 240 240
217 210 204 199 194 189 185 180 175 174 174 174 172 170 167 163 160 157 154 152 149 147 147 149 149 149 149 150 150 151 151 151 151 152 152 153 155 157 158 158 159 159 160 161 162 164 167 171 175 178 181 184 185 188 191 193 196 201 205 210 216 218 218 223 229 233 235 237 237 237 237 236 234 235 234 232 230 230 232 234 237 238 238 238 239